Highlands Peak, California Weather observations

Data are for observation ending at time listed.
 Day   Time    Ave.   Ave.  Ave.  Vector   Max.   Stn.    Total    Solar   Ave.  
  of    of     Air    Rel.  Wind   Wind    Wind   Baro.  Precip.   Rad.    Soil  
Year   Day     Temp.  Hum.  Speed  Dir.    Gust   Pres.                    Temp. 
2026   (PST)    F      %     mph   deg.    mph     mb.     in.     W/m2     F   
------------------------------------------------------------------------------
 123   17:40   50.1    77    5.8   224     10.4   926.9    0.00     292    65.4
 123   17:50   50.0    79    6.3   222     10.8   926.9    0.00     257    65.4
 123   18:00   49.2    82    5.9   224      9.6   926.9    0.00     170    65.4
 123   18:10   48.8    85    5.2   220      8.8   926.9    0.00     163    65.4
 123   18:20   48.1    86    6.4   236      8.8   926.9    0.00      88    65.4
 123   18:30   48.1    85    4.2   245      6.4   926.9    0.00      74    65.5
 123   18:40   47.4    86    3.0   288      4.7   927.0    0.00      43    65.5
 123   18:50   46.5    89    4.1   327      5.8   926.9    0.00      23    65.5
 123   19:00   45.3    92    5.8   356      6.6   927.0    0.00       8    65.4
 123   19:10   45.3    92    5.8    11      6.9   927.0    0.00       2    65.4
 123   19:20   45.5    86    3.5   356      5.6   927.0    0.00       1    65.3
 123   19:30   44.9    93    3.7   236      5.1   927.1    0.00       0    65.2
 123   19:40   44.2    99    4.0   212      5.1   927.4    0.00       0    65.2
 123   19:50   44.1   100    4.4   216      5.4   927.5    0.00       0    65.1
 123   20:00   44.2   100    3.5   220      5.6   927.6    0.00       0    65.0
 123   20:10   44.4   100    0.8   239      4.0   927.6    0.00       0    64.9
 123   20:20   44.4   100    2.4     8      3.9   927.7    0.00       0    64.9
 123   20:30   44.3   100    3.7     3      5.3   927.7    0.00       0    64.8
 123   20:40   44.3   100    2.3   342      4.5   927.9    0.00       0    64.7
 123   20:50   44.2    99    2.5   330      4.1   928.0    0.00       0    64.6
 123   21:00   44.2    95    3.7   330      5.3   928.0    0.00       0    64.5
 123   21:10   44.6    96    2.7   254      4.0   928.2    0.00       0    64.4
 123   21:20   45.1   100    1.3   224      3.1   928.3    0.00       0    64.3
 123   21:30   45.1   100    1.5   223      4.3   928.4    0.00       0    64.2
 123   21:40   45.2   100    3.3   224      5.3   928.4    0.00       0    64.1
 123   21:50   44.8   100    1.7   296      3.7   928.3    0.00       0    64.1
 123   22:00   43.7    99    2.3    16      3.9   928.2    0.00       0    64.0
 123   22:10   43.9    99    0.0   306      0.5   928.1    0.00       0    63.9
 123   22:20   44.0    99    0.2    18      1.1   928.0    0.00       0    63.9
 123   22:30   43.9    98    1.7   260      2.9   928.1    0.00       0    63.8
 123   22:40   43.8   100    2.2   296      3.1   928.1    0.00       0    63.7
 123   22:50   43.7   100    2.7   334      3.2   928.1    0.00       0    63.6
 123   23:00   43.6    98    2.9     8      3.4   928.1    0.00       0    63.6
 123   23:10   43.1    96    3.3    29      4.1   928.1    0.00       0    63.5
 123   23:20   43.3    95    2.4    18      4.2   928.1    0.00       0    63.4
 123   23:30   43.7    92    0.6    26      1.5   928.2    0.00       0    63.3
 123   23:40   44.1    92    0.9    33      1.2   928.3    0.00       0    63.2
 123   23:50   44.2    90    1.0    20      1.5   928.4    0.00       0    63.1
 124    0:00   44.3    89    0.4   158      1.5   928.4    0.00       0    63.0
 124    0:10   44.6    89    1.6   157      2.5   928.4    0.00       0    62.9
 124    0:20   44.6    91    1.6   207      2.7   928.4    0.00       0    62.8
 124    0:30   44.2    91    3.2   351      4.5   928.2    0.00       0    62.7
 124    0:40   43.9    90    3.5     8      4.7   928.1    0.00       0    62.6
 124    0:50   44.2    89    3.6   340      4.3   928.0    0.00       0    62.6
 124    1:00   44.2    89    4.0   336      5.2   927.9    0.00       0    62.6
 124    1:10   44.4    88    3.9   342      5.0   927.8    0.00       0    62.5
 124    1:20   43.9    87    3.9     5      4.9   927.7    0.00       0    62.3
 124    1:30   43.9    87    3.0   339      4.2   927.8    0.00       0    62.3
 124    1:40   44.0    86    2.5   358      4.0   927.7    0.00       0    62.2
 124    1:50   44.1    86    2.4   351      3.2   927.6    0.00       0    62.1
 124    2:00   43.8    85    3.2    16      4.3   927.5    0.00       0    62.0
 124    2:10   43.6    85    3.1    13      4.2   927.5    0.00       0    61.9
 124    2:20   43.5    85    1.6     7      3.1   927.4    0.00       0    61.8
 124    2:30   43.9    85    0.8   262      1.9   927.5    0.00       0    61.7
 124    2:40   43.7    85    3.6   343      6.3   927.4    0.00       0    61.6
 124    2:50   43.2    84    5.4    10      6.4   927.3    0.00       0    61.6
 124    3:00   43.4    84    4.5     9      6.1   927.3    0.00       0    61.4
 124    3:10   44.0    80    2.9   352      5.0   927.4    0.00       0    61.3
 124    3:20   44.3    79    2.9   314      5.6   927.4    0.00       0    61.2
 124    3:30   43.9    79    4.5   345      5.9   927.3    0.00       0    61.2
 124    3:40   44.1    79    4.3   332      5.5   927.2    0.00       0    61.1
 124    3:50   44.4    78    3.5   318      4.5   927.2    0.00       0    61.1
 124    4:00   44.4    78    3.4   284      4.6   927.2    0.00       0    60.9
 124    4:10   43.5    83    3.1   252      5.1   927.2    0.00       0    60.8
 124    4:20   43.2    86    3.4   269      4.4   927.2    0.00       0    60.7
 124    4:30   42.5    89    4.4   292      5.0   927.1    0.00       0    60.7
 124    4:40   43.2    88    2.4   305      3.6   927.2    0.00       0    60.6
 124    4:50   43.5    89    1.6   310      2.6   927.2    0.00       0    60.5
 124    5:00   43.6    87    2.1   352      3.4   927.3    0.00       1    60.4
 124    5:10   43.5    83    2.6    20      3.9   927.3    0.00       2    60.3
 124    5:20   43.7    80    0.6    12      1.5   927.3    0.00       6    60.2
 124    5:30   43.8    84    2.2   189      3.2   927.4    0.00      10    60.1
 124    5:40   43.7    90    1.8   183      2.5   927.4    0.00      14    60.0
 124    5:50   43.6    91    0.8   139      1.5   927.5    0.00      18    59.9
 124    6:00   43.5    92    0.2   229      0.7   927.6    0.00      21    59.8
 124    6:10   43.6    93    1.0   264      1.3   927.7    0.00      94    59.7
 124    6:20   44.6    91    1.9   284      2.4   927.8    0.00     202    59.6
 124    6:30   45.7    86    0.4   266      1.0   928.0    0.00     234    59.5
 124    6:40   46.0    86    1.0   286      2.0   928.1    0.00     267    59.3
 124    6:50   46.1    84    2.4   312      4.2   928.1    0.00     305    59.2
 124    7:00   46.1    82    3.7   333      4.9   928.1    0.00     333    59.2
 124    7:10   46.6    79    1.9   311      4.2   928.1    0.00     381    59.1
 124    7:20   47.1    76    3.8   258      5.3   928.1    0.00     417    59.0
 124    7:30   46.9    76    3.6   226      4.2   928.2    0.00     454    58.9
 124    7:40   46.9    76    3.3   230      4.2   928.1    0.00     490    58.8
 124    7:50   47.1    74    2.3   215      3.9   928.1    0.00     526    58.7
 124    8:00   48.0    72    1.7   208      3.4   928.1    0.00     561    58.7
 124    8:10   48.6    74    2.7   168      5.2   928.1    0.00     595    58.6
 124    8:20   49.9    74    2.7   185      5.5   928.2    0.00     621    58.7
 124    8:30   49.8    72    3.8   213      5.9   928.3    0.00     612    58.6
 124    8:40   49.6    75    3.0   165      7.0   928.3    0.00     707    58.6
 124    8:50   50.5    73    4.7   196      8.5   928.3    0.00     734    58.6
 124    9:00   48.9    79    6.1   219      9.3   928.4    0.00     526    58.5
 124    9:10   47.3    88    4.8   229      6.9   928.3    0.00     310    58.6
 124    9:20   46.6    90    4.9   216      8.6   928.4    0.00     243    58.6
 124    9:30   46.6    92    6.2   225      8.6   928.5    0.00     261    58.7
 124    9:40   46.1    94    4.7   228      7.8   928.6    0.00     166    58.7
 124    9:50   46.4    95    5.5   214      9.7   928.7    0.00     259    58.7
 124   10:00   46.3    96    7.0   214     10.4   928.8    0.00     223    58.7
 124   10:10   46.9    93    4.4   206      6.5   928.8    0.00     387    58.7
 124   10:20   47.8    91    6.0   214      9.1   928.8    0.00     417    58.7
 124   10:30   47.5    90    5.6   216      7.8   928.9    0.00     317    58.7
 124   10:40   47.6    87    4.8   220      7.4   929.2    0.00     457    58.7
 124   10:50   48.4    87    6.1   222     10.3   929.2    0.00     718    58.7
 124   11:00   49.3    83    7.3   216     11.0   929.2    0.00     577    58.7
 124   11:10   49.1    78    5.9   208      8.5   929.3    0.00     645    58.7
 124   11:20   49.8    76    6.5   221     10.5   929.3    0.00     828    58.8
 124   11:30   49.7    76    6.2   227     10.4   929.2    0.00     685    58.8
 124   11:40   49.1    79    7.1   215      9.4   929.2    0.00     535    58.9
 124   11:50   49.4    78    6.3   222     10.3   929.2    0.00     526    59.0
 124   12:00   50.4    79    7.5   220     11.4   929.1    0.00    1002    59.0
 124   12:10   51.2    74    7.7   229     12.1   929.1    0.00     876    59.1
 124   12:20   50.9    76    8.2   234     13.7   929.1    0.00    1001    59.2
 124   12:30   51.3    72    7.1   216     11.2   929.1    0.00     798    59.3
 124   12:40   51.8    70    7.1   214     10.5   929.1    0.00    1103    59.4
 124   12:50   50.7    73    9.6   217     13.3   929.2    0.00     632    59.5
 124   13:00   50.1    77    8.9   217     11.8   929.3    0.00     853    59.7
 124   13:10   50.3    76    7.1   210     11.8   929.4    0.00     526    59.9
 124   13:20   50.5    75    8.9   211     13.7   929.3    0.00     890    60.0
 124   13:30   51.8    72    6.9   207     11.4   929.4    0.00     817    60.2
 124   13:40   50.3    77    9.7   222     14.5   929.4    0.00     411    60.3
 124   13:50   49.1    80    9.4   214     13.0   929.3    0.00     316    60.5
 124   14:00   48.7    82    9.2   227     13.0   929.2    0.00     382    60.6
 124   14:10   48.8    83    8.0   224     11.9   929.1    0.00     351    60.8
 124   14:20   48.3    83    9.2   225     12.5   929.1    0.00     328    60.9
 124   14:30   47.7    82    7.6   221     11.0   929.0    0.00     273    61.0
 124   14:40   48.0    82    7.8   221     10.7   929.0    0.00     302    61.1
 124   14:50   48.2    81    7.3   226     10.4   928.8    0.00     328    61.2
 124   15:00   48.2    82    8.2   223     11.3   928.7    0.00     289    61.3
 124   15:10   47.9    84    7.2   223     10.5   928.7    0.00     261    61.3
 124   15:20   47.8    85    6.8   223     10.0   928.7    0.00     314    61.4
 124   15:30   47.9    88    7.2   220      9.9   928.5    0.00     318    61.4
 124   15:40   48.1    89    5.6   218      8.6   928.4    0.00     289    61.5
 124   15:50   47.9    87    4.8   220      7.5   928.4    0.00     226    61.5
 124   16:00   47.8    87    5.0   221      8.4   928.4    0.00     186    61.6
 124   16:10   47.4    90    4.5   228      8.5   928.4    0.00     160    61.6
 124   16:20   47.2    90    3.8   236      6.4   928.3    0.00     148    61.6
 124   16:30   47.3    89    3.8   232      5.9   928.3    0.00     165    61.7
 124   16:40   47.5    88    2.7   238      5.6   928.4    0.00     193    61.7
 124   16:50   48.1    87    3.2   248      5.8   928.3    0.00     211    61.7
 124   17:00   49.8    82    3.2   244      5.9   928.3    0.00     322    61.7
 124   17:10   51.9    77    4.6   220      9.6   928.2    0.00     455    61.7
 124   17:20   52.1    72    6.4   216      9.7   928.1    0.00     348    61.8
 124   17:30   51.8    79    5.8   220      9.4   928.1    0.00     231    61.8

Return to Highlands Peak graphs page.


Western Regional Climate Center,wrcc@dri.edu